Hourly Data Report for September 30, 2017

All times are specified in Local Standard Time (LST). Add 1 hour to adjust for Daylight Saving Time where and when it is observed.

FISHER BRANCH (AUT)
MANITOBA

51°05'00.100" N
97°33'16.200" W
253.00 m
50309J6
71442
WSZ

Download Data

Hourly Data (September 2017)
Hourly Data Report for September 30, 2017
Temp Definition
°C
Dew Point Temp Definition
°C
Rel Hum Definition
%
Wind Dir Definition
10's deg

Wind Spd Definition
km/h
Visibility Definition
km
Stn Press Definition
kPa
Hmdx Definition


Wind Chill Definition


Weather Definition


TIME
00:00 6.1 4.1 87 16 10   99.22     LegendNANA
01:00 5.4 3.7 88 15 7   99.18     LegendNANA
02:00 5.4 3.9 90 16 9   99.14     LegendNANA
03:00 4.1 2.9 92 15 10   99.09     LegendNANA
04:00 5.6 4.1 90 15 11   99.03     LegendNANA
05:00 5.5 3.9 89 16 11   99.01     LegendNANA
06:00 5.7 4.1 90 15 12   98.94     LegendNANA
07:00 6.1 4.3 88 15 13   98.89     LegendNANA
08:00 7.7 5.2 84 15 18   98.81     LegendNANA
09:00 11.2 6.5 72 16 15   98.76     LegendNANA
10:00 14.8 7.2 60 15 17   98.70     LegendNANA
11:00 17.2 7.3 52 15 23   98.63     LegendNANA
12:00 17.7 8.1 53 14 19   98.53     LegendNANA
13:00 20.3 8.2 46 14 26   98.41     LegendNANA
14:00 19.9 8.8 49 13 27   98.31     LegendNANA
15:00 20.1 8.8 48 14 25   98.24     LegendNANA
16:00 20.1 9.3 50 14 23   98.15     LegendNANA
17:00 20.4 9.5 49 14 25   98.07     LegendNANA
18:00 18.4 10.2 59 13 24   98.04     LegendNANA
19:00 16.7 10.0 64 12 20   98.01     LegendNANA
20:00 16.0 10.1 68 13 24   97.96     LegendNANA
21:00 17.0 10.3 65 14 22   97.93     LegendNANA
22:00 17.0 10.7 67 15 24   97.89     LegendNANA
23:00 16.9 9.9 64 14 28   97.84     LegendNANA

Notes on Data Quality.

Legend

  • E = Estimated
  • M = Missing
  • NA = Not Available
  • ‡ = Partner data that is not subject to review by the National Climate Archives
Date modified: